sat.trackr.live / text

‹ back to catalog

STARLINK-36240

NORAD 67076 · 2025-298B

PAYLOAD ACTIVE UNKNOWN

§ Identity

Operator
Country
US
Launch date
2025-12-14
Launch site
AFWTR
Launch vehicle
Mass (kg)
RCS (m²)

Purposes: comms

External: N2YO · Heavens-Above · Gunter

§ Orbital elements

Epoch: 2026-09-20T22:36:34.905888Z

Period
96.11 min
Inclination
69.9986°
Eccentricity
0.0003540
Mean motion
14.98330055 rev/d
Perigee alt
569.6 km
Apogee alt
574.5 km
Semi-major
6,950.2 km
B*
2.6011e-4
RAAN
242.1802°
Arg perigee
273.8299°
Mean anomaly
86.2455°
Rev number
4,246

§ Raw data

STARLINK-362401 67076U 25298B   26263.94207067  .00003012  00000+0  26011-3 0  99942 67076  69.9986 242.1802 0003540 273.8299  86.2455 14.98330055 42460

JSON: /api/v1/satellites/67076 · /tle

For live sub-satellite position, see the globe view (requires WebGL).

§ Visibility from observer

Set your observer location to see the next 7 days of passes ≥ 10°. The values pass through the URL so the page stays shareable.

No JS? Fill the form by hand. The geolocation button needs JavaScript.